Elmira, NY

5:35 AM EST on December 10, 2019 (GMT -0500)
Elmira-Corning Regional

Weather History for KELM - October, 2019

Change the Weather History Date:

Monday, October 7, 2019

  Actual Average Record
Temperature  
Mean Temperature 58 °F -  
Max Temperature 64 °F 63 °F 86 °F (1941)
Min Temperature 51 °F 39 °F 25 °F (1964)
Degree Days  
Heating Degree Days 8    
Growing Degree Days 8 (Base 50)    
Moisture  
Dew Point 56 °F    
Average Humidity 96    
Maximum Humidity 100    
Minimum Humidity 86    
Precipitation  
Precipitation 1.06 in - - ()
Sea Level Pressure  
Sea Level Pressure 30.13 in    
Wind  
Wind Speed 2 mph (SSW)    
Max Wind Speed 13 mph    
Max Gust Speed 20 mph    
Visibility 5 miles    
Events Fog , Rain    
Averages and records for this station are not official NWS values.
T = Trace of Precipitation, MM = Missing Value Source: NWS Daily Summary

Daily Weather History Graph

Daily Weather History Graph

Search for Another Location

Airport or City:

Astronomy

Oct. 07, 2019 Rise Set
Actual Time 7:10 AM EDT 6:39 PM EDT
Civil Twilight 6:42 AM EDT 7:07 PM EDT
Nautical Twilight 6:10 AM EDT 7:39 PM EDT
Astronomical Twilight 5:37 AM EDT 8:12 PM EDT
Moon 4:06 PM EDT (10/7) 12:53 AM EDT (10/7)
Length of Visible Light 12h 24m
Length of Day
11h 28m
Waxing Gibbous, 69% of the Moon is Illuminated
Oct 7
Waxing Gibbous
Oct 13
Full
Oct 21
Last Quarter
Oct 27
New
Nov 4
First Quarter

Hourly Weather History & Observations

Time (EDT) Temp. Dew Point Humidity Pressure Visibility Wind Dir Wind Speed Gust Speed Precip Events Conditions
12:11 AM 64.0 °F 61.0 °F 90% 30.09 in 10.0 mi Calm Calm - N/A   Overcast
12:53 AM 64.0 °F 61.0 °F 90% 30.08 in 10.0 mi Calm Calm - 0.00 in Rain Light Rain
1:20 AM 62.1 °F 61.0 °F 96% 30.08 in 2.5 mi Calm Calm - 0.05 in Rain Rain
1:53 AM 62.1 °F 61.0 °F 96% 30.08 in 4.0 mi Calm Calm - 0.09 in Rain Light Rain
2:20 AM 62.1 °F 62.1 °F 100% 30.08 in 2.5 mi Variable 6.9 mph - 0.04 in Rain Heavy Rain
2:26 AM 62.1 °F 57.9 °F 86% 30.09 in 1.8 mi NNW 12.7 mph 19.6 mph 0.07 in Rain Heavy Rain
2:47 AM 60.8 °F 57.2 °F 88% 30.09 in 3.0 mi South 6.9 mph - 0.19 in Rain Rain
2:53 AM 60.1 °F 59.0 °F 96% 30.08 in 3.0 mi SE 3.5 mph - 0.21 in Rain Heavy Rain
3:12 AM 59.0 °F 57.9 °F 96% 30.08 in 5.0 mi East 4.6 mph - 0.04 in Rain Rain
3:53 AM 59.0 °F 57.0 °F 93% 30.08 in 8.0 mi SE 3.5 mph - 0.07 in Rain Light Rain
4:53 AM 57.0 °F 55.9 °F 96% 30.08 in 4.0 mi Calm Calm - 0.06 in Rain Light Rain
5:11 AM 57.0 °F 57.0 °F 100% 30.09 in 2.0 mi Calm Calm - 0.06 in Rain Heavy Rain
5:20 AM 57.0 °F 57.0 °F 100% 30.08 in 3.0 mi Calm Calm - 0.08 in Rain Rain
5:39 AM 57.0 °F 57.0 °F 100% 30.09 in 6.0 mi Calm Calm - 0.09 in Rain Light Rain
5:53 AM 57.0 °F 57.0 °F 100% 30.09 in 6.0 mi Calm Calm - 0.10 in Rain Light Rain
6:25 AM 57.0 °F 55.9 °F 96% 30.12 in 5.0 mi West 10.4 mph - 0.07 in Rain Rain
6:35 AM 57.0 °F 55.0 °F 93% 30.10 in 2.0 mi SSW 4.6 mph - 0.13 in Rain Heavy Rain
6:46 AM 55.9 °F 55.9 °F 100% 30.09 in 6.0 mi South 3.5 mph - 0.14 in Rain Light Rain
6:53 AM 55.9 °F 55.0 °F 97% 30.09 in 7.0 mi South 4.6 mph - 0.15 in Rain Light Rain
7:53 AM 55.9 °F 55.9 °F 100% 30.12 in 10.0 mi Calm Calm - 0.04 in Rain Light Rain
8:01 AM 55.9 °F 55.0 °F 97% 30.12 in 7.0 mi Calm Calm - 0.01 in Rain Light Rain
8:06 AM 55.9 °F 55.0 °F 97% 30.12 in 5.0 mi Calm Calm - 0.01 in Rain Light Rain
8:15 AM 57.0 °F 55.9 °F 96% 30.12 in 6.0 mi Calm Calm - 0.01 in Rain Light Rain
8:40 AM 57.0 °F 55.9 °F 96% 30.12 in 7.0 mi Calm Calm - 0.02 in Rain Light Rain
8:53 AM 57.0 °F 55.9 °F 96% 30.12 in 9.0 mi Calm Calm - 0.02 in Rain Light Rain
9:34 AM 57.0 °F 55.9 °F 96% 30.12 in 6.0 mi SSW 4.6 mph - 0.02 in Rain Light Rain
9:53 AM 57.0 °F 55.0 °F 93% 30.13 in 2.0 mi WSW 4.6 mph - 0.04 in Rain Rain
10:00 AM 57.0 °F 55.9 °F 96% 30.13 in 3.0 mi WSW 5.8 mph - 0.01 in Rain Rain
10:24 AM 57.0 °F 55.9 °F 96% 30.13 in 3.0 mi SW 6.9 mph - 0.06 in Rain Rain
10:40 AM 57.9 °F 55.9 °F 93% 30.13 in 5.0 mi SW 5.8 mph - 0.08 in Rain Light Rain
10:53 AM 57.9 °F 57.0 °F 97% 30.14 in 5.0 mi SW 5.8 mph - 0.09 in Rain Light Rain
11:53 AM 57.9 °F 55.9 °F 93% 30.13 in 5.0 mi WSW 5.8 mph - 0.05 in Rain Light Rain
12:34 PM 57.9 °F 55.9 °F 93% 30.13 in 7.0 mi WSW 5.8 mph - 0.02 in Rain Light Rain
12:53 PM 57.9 °F 55.9 °F 93% 30.13 in 10.0 mi SSW 5.8 mph - 0.03 in Rain Light Rain
1:53 PM 57.9 °F 55.0 °F 90% 30.13 in 8.0 mi SSW 4.6 mph - 0.02 in Rain Light Rain
2:53 PM 57.9 °F 55.9 °F 93% 30.13 in 4.0 mi WSW 4.6 mph - 0.06 in Rain Light Rain
3:53 PM 57.9 °F 55.9 °F 93% 30.12 in 9.0 mi South 5.8 mph - 0.03 in Rain Light Rain
5:53 PM 55.0 °F 52.0 °F 89% 30.14 in 10.0 mi WSW 3.5 mph - N/A   Mostly Cloudy
6:53 PM 54.0 °F 53.1 °F 97% 30.16 in 10.0 mi Calm Calm - N/A   Partly Cloudy
7:53 PM 53.1 °F 53.1 °F 100% 30.17 in 10.0 mi Calm Calm - N/A   Overcast
8:53 PM 53.1 °F 52.0 °F 96% 30.19 in 10.0 mi Calm Calm - N/A   Clear
9:53 PM 52.0 °F 52.0 °F 100% 30.21 in 10.0 mi Calm Calm - N/A   Clear
10:09 PM 52.0 °F 52.0 °F 100% 30.20 in 2.5 mi Calm Calm - N/A   Scattered Clouds
10:14 PM 51.1 °F 51.1 °F 100% 30.20 in 0.8 mi Calm Calm - N/A   Mist
10:35 PM 52.0 °F 51.1 °F 97% 30.20 in 2.0 mi Calm Calm - N/A   Overcast
10:42 PM 52.0 °F 52.0 °F 100% 30.20 in 0.8 mi Calm Calm - N/A   Mist
10:53 PM 52.0 °F 52.0 °F 100% 30.22 in 0.5 mi Calm Calm - N/A Fog Fog
11:04 PM 52.0 °F 51.1 °F 97% 30.21 in 1.0 mi Calm Calm - N/A   Overcast
11:14 PM 51.1 °F 51.1 °F 100% 30.21 in 0.2 mi Calm Calm - N/A Fog Fog
11:29 PM 52.0 °F 52.0 °F 100% 30.22 in 1.0 mi Calm Calm - N/A   Overcast
11:53 PM 52.0 °F 52.0 °F 100% 30.23 in 0.5 mi SW 3.5 mph - N/A Fog Fog